History for Miami, FL

Sunday, December 30, 2012 — View Current Conditions

Jump to Data:

Date:
Airport Code:
Recently Viewed Airport Codes: KMIA
Daily Summary
  Actual Average Record
Temperature
Mean Temperature 62°F 69°F  
Max Temperature 70°F 77°F 83°F (1945)
Min Temperature 53°F 61°F 33°F (1909)
Degree Days
Heating Degree Days 3 2  
Month to date heating degree days 15 32  
Since 1 July heating degree days 16 35  
Cooling Degree Days 0 5  
Month to date cooling degree days 232 197  
Year to date cooling degree days 4672 4569  
Growing Degree Days 12 (Base 50)    
Moisture
Dew Point 50°F    
Average Humidity 68    
Maximum Humidity 83    
Minimum Humidity 53    
Precipitation
Precipitation 0.00 in 0.06 in 2.17 in (1963)
Month to date precipitation 0.51 1.98  
Year to date precipitation 86.94 61.84  
Snow
Snow 0.00 in in in ()
Month to date snowfall 0.0  
Since 1 July snowfall 0.0  
Snow Depth 0.00 in    
Sea Level Pressure
Sea Level Pressure 30.23 in    
Wind
Wind Speed 11 mph (North)    
Max Wind Speed 18 mph    
Max Gust Speed 26 mph    
Visibility 10 miles    
Events      
T = Trace of Precipitation, MM = Missing Value Source: NWS Daily Summary

Show full METARS

(help) - Comma Delimited File

Hourly Observations

Time(EST) Temperature Dew Point Humidity Sea Level Pressure Visibility Wind Direction Wind Speed Gust Speed Precipitation Events Conditions
12:53 AM 62.1°F 52.0°F 70% 30.14 in 10.0 miles NW 11.5 mph 18.4 mph N/A   Clear
1:53 AM 57.9°F 51.1°F 78% 30.15 in 10.0 miles NW 12.7 mph 24.2 mph N/A   Clear
2:53 AM 57.0°F 50.0°F 77% 30.16 in 10.0 miles NW 11.5 mph 18.4 mph N/A   Partly Cloudy
3:53 AM 55.9°F 50.0°F 80% 30.17 in 10.0 miles NNW 9.2 mph 16.1 mph N/A   Partly Cloudy
4:53 AM 55.0°F 50.0°F 83% 30.18 in 10.0 miles NW 6.9 mph - N/A   Clear
5:53 AM 54.0°F 48.9°F 83% 30.19 in 10.0 miles NNW 8.1 mph - N/A   Clear
6:53 AM 53.1°F 48.9°F 86% 30.21 in 10.0 miles NNW 6.9 mph - N/A   Scattered Clouds
7:53 AM 53.1°F 43.0°F 69% 30.24 in 10.0 miles NNW 15.0 mph 20.7 mph N/A   Scattered Clouds
8:53 AM 54.0°F 45.0°F 72% 30.26 in 10.0 miles North 13.8 mph 23.0 mph N/A   Scattered Clouds
9:53 AM 55.9°F 46.0°F 69% 30.28 in 10.0 miles North 9.2 mph 18.4 mph N/A   Clear
10:53 AM 60.1°F 48.0°F 64% 30.27 in 10.0 miles Variable 5.8 mph - N/A   Mostly Cloudy
11:53 AM 62.1°F 48.0°F 60% 30.27 in 10.0 miles NNW 9.2 mph - N/A   Mostly Cloudy
12:53 PM 66.0°F 50.0°F 56% 30.24 in 10.0 miles NNE 8.1 mph 18.4 mph N/A   Scattered Clouds
1:53 PM 69.1°F 51.1°F 53% 30.22 in 10.0 miles NNE 13.8 mph 20.7 mph N/A   Mostly Cloudy
2:53 PM 70.0°F 53.1°F 55% 30.22 in 10.0 miles NNE 9.2 mph 20.7 mph N/A   Mostly Cloudy
3:53 PM 69.1°F 53.1°F 57% 30.23 in 10.0 miles NNE 13.8 mph 20.7 mph N/A   Mostly Cloudy
4:53 PM 69.1°F 53.1°F 57% 30.24 in 10.0 miles NE 13.8 mph 19.6 mph N/A   Mostly Cloudy
5:53 PM 68.0°F 52.0°F 56% 30.25 in 10.0 miles NE 12.7 mph 21.9 mph N/A   Mostly Cloudy
6:53 PM 68.0°F 52.0°F 56% 30.26 in 10.0 miles NE 8.1 mph 17.3 mph N/A   Mostly Cloudy
7:53 PM 66.9°F 53.1°F 61% 30.27 in 10.0 miles NE 9.2 mph - N/A   Scattered Clouds
8:53 PM 66.9°F 53.1°F 61% 30.28 in 10.0 miles NE 10.4 mph - N/A   Scattered Clouds
9:53 PM 66.9°F 53.1°F 61% 30.29 in 10.0 miles ENE 13.8 mph 19.6 mph N/A   Mostly Cloudy
10:53 PM 66.9°F 53.1°F 61% 30.29 in 10.0 miles ENE 11.5 mph 18.4 mph N/A   Mostly Cloudy
11:53 PM 66.9°F 53.1°F 61% 30.28 in 10.0 miles ENE 10.4 mph - N/A   Mostly Cloudy